Location: Exeidioux
(45.6312°N, 1.6819°E)
Time: 20:55:19
(UTC+00:00)

BREEZE-M DEB (TANK) - Pass Details

Date: 03 March 2021
Orbit: 308 x 15403 km, 49.5° (Epoch: 12 April)

Event Time Altitude Azimuth Distance (km) Brightness Sun altitude
Rises 19:45:55 0° 288° (WNW) 2,122 6.8 -22.1°
Reaches altitude 10° 19:47:18 10° 294° (WNW) 1,447 5.6 -22.4°
Maximum altitude 19:49:59 53° 14° (NNE) 739 2.9 -22.8°
Enters shadow 19:50:22 51° 37° (NE) 805 2.9 -22.9°
